Location: Gellin
(53.4498°N, 14.3207°E)
Time: 22:50:03
(UTC+00:00)

Cosmos 1703 Rocket - Pass Details

Date: 03 March 2021
Orbit: 604 x 634 km, 82.5° (Epoch: 12 April)

Event Time Altitude Azimuth Distance (km) Brightness Sun altitude
Rises 18:46:02 0° 345° (NNW) 2,919 7.4 -18.7°
Reaches altitude 10° 18:48:19 10° 340° (NNW) 2,002 6.6 -19.1°
Maximum altitude 18:52:37 51° 266° (W) 786 4.4 -19.7°
Drops below altitude 10° 18:56:50 10° 190° (S) 1,968 6.1 -20.3°
Sets 18:59:04 0° 186° (S) 2,864 6.9 -20.6°
